Flight Track Log - Related Links

Times and Time Zones

All times are in EDT time to prevent confusion due to time zone crossing. See the SWA118 flight status page for this flight to view local times or setup timezone preferences in your user account.

Time Position Orientation Groundspeed Altitude Reporting Facility
EDT Latitude Longitude Course Direction KTS MPH feet Rate Location/Type
Wed 11:07:53 AM 39.4667 -119.7667 180° South 174 200 5,600  Level Northern Cal TRACON
Wed 11:08:53 AM 39.4167 -119.7667 180° South 236 272 7,500 2,350 Climbing Northern Cal TRACON
Wed 11:09:53 AM 39.3500 -119.7667 180° South 260 299 10,300 2,600 Climbing Northern Cal TRACON
Wed 11:10:53 AM 39.2667 -119.7333 163° South 347 399 12,700 2,950 Climbing Northern Cal TRACON
Wed 11:11:53 AM 39.2000 -119.6333 131° Southeast 368 423 16,200 2,589 Climbing Northern Cal TRACON
Wed 11:13:19 AM 39.0861 -119.5081 139° Southeast 376 433 19,000 2,122 Climbing Oakland Center
Wed 11:14:20 AM 39.0050 -119.4119 137° Southeast 392 451 21,400 2,293 Climbing Oakland Center
Wed 11:15:22 AM 38.9236 -119.3167 138° Southeast 398 458 23,700 2,146 Climbing Oakland Center
Wed 11:16:23 AM 38.8419 -119.2119 135° Southeast 412 474 25,800 2,016 Climbing Oakland Center
Wed 11:17:24 AM 38.7572 -119.1042 135° Southeast 427 491 27,800 1,561 Climbing Oakland Center
Wed 11:18:26 AM 38.6703 -118.9953 136° Southeast 438 504 29,000 585 Climbing Oakland Center
Wed 11:19:27 AM 38.5658 -118.8661 136° Southeast 437 503 29,000 738 Level Oakland Center
Wed 11:20:28 AM 38.4794 -118.7597 136° Southeast 435 501 30,500 976 Climbing Oakland Center
Wed 11:21:30 AM 38.3953 -118.6544 136° Southeast 427 491 31,000 244 Climbing Oakland Center
Wed 11:22:31 AM 38.3119 -118.5514 136° Southeast 421 484 31,000  Level Oakland Center
Wed 11:23:32 AM 38.2275 -118.4494 137° Southeast 419 482 31,000  Level Oakland Center
Wed 11:24:34 AM 38.1439 -118.3456 136° Southeast 420 483 31,000  Level Oakland Center
Wed 11:25:35 AM 38.0619 -118.2456 136° Southeast 423 487 31,000  Level Oakland Center
Wed 11:26:36 AM 37.9644 -118.1272 136° Southeast 410 472 31,000  Level Oakland Center
Wed 11:27:37 AM 37.8828 -118.0286 136° Southeast 408 470 31,000  Level Oakland Center
Wed 11:28:39 AM 37.7997 -117.9294 137° Southeast 412 474 31,000  Level Oakland Center
Wed 11:29:40 AM 37.7117 -117.8233 136° Southeast 433 498 31,000  Level Oakland Center
Wed 11:30:41 AM 37.6233 -117.7178 137° Southeast 438 504 31,000  Level Oakland Center
Wed 11:31:43 AM 37.5358 -117.6117 136° Southeast 438 504 31,000  Level Oakland Center
Wed 11:32:44 AM 37.4467 -117.5067 137° Southeast 440 506 31,000  Level Oakland Center
Wed 11:33:45 AM 37.3567 -117.4000 137° Southeast 444 511 31,000  Level Oakland Center
Wed 11:34:51 AM 37.2489 -117.2717 137° Southeast 445 512 31,000  Level Los Angeles Center
Wed 11:35:53 AM 37.1764 -117.1869 137° Southeast 445 512 31,000 -528 Level Los Angeles Center
Wed 11:36:56 AM 37.0697 -117.0606 137° Southeast 440 506 29,900 -960 Descending Los Angeles Center
Wed 11:37:58 AM 36.9792 -116.9558 137° Southeast 442 509 29,000 -439 Descending Los Angeles Center
Wed 11:38:59 AM 36.8889 -116.8492 137° Southeast 445 512 29,000 -629 Level Los Angeles Center
Wed 11:40:02 AM 36.7822 -116.7219 136° Southeast 442 509 27,700 -1,152 Descending Los Angeles Center
Wed 11:41:04 AM 36.7064 -116.6108 130° Southeast 423 487 26,600 -1,016 Descending Los Angeles Center
Wed 11:42:06 AM 36.6297 -116.5017 131° Southeast 420 483 25,600 -968 Descending Los Angeles Center
Wed 11:43:08 AM 36.5536 -116.3933 131° Southeast 417 480 24,600 -1,113 Descending Los Angeles Center
Wed 11:44:10 AM 36.4714 -116.2783 132° Southeast 417 480 23,300 -1,839 Descending Los Angeles Center
Wed 11:45:12 AM 36.3917 -116.1622 130° Southeast 412 474 20,800 -2,346 Descending Los Angeles Center
Wed 11:46:23 AM 36.3006 -116.0400 133° Southeast 396 456 18,100 -2,177 Descending Los Angeles Center
Wed 11:47:16 AM 36.2425 -115.9544 130° Southeast 385 443 16,300 -2,073 Descending Los Angeles Center
Wed 11:47:18 AM 36.2339 -115.9469 145° Southeast 386 444 16,200 -295 Descending Los Angeles Center
Wed 11:48:17 AM 36.1917 -115.8664 123° Southeast 374 430 16,000 -179 Descending Los Angeles Center
Wed 11:48:25 AM 36.1792 -115.8314 114° Southeast 371 427 16,000 -571 Level Los Angeles Center
Wed 11:49:20 AM 36.1444 -115.7219 111° Southeast 370 426 15,400 -806 Descending Los Angeles Center
Wed 11:49:32 AM 36.1350 -115.6942 113° Southeast 369 425 15,100 -1,452 Descending Los Angeles Center
Wed 11:50:22 AM 36.1047 -115.6008 112° Southeast 354 407 13,900 -1,475 Descending Los Angeles Center
Wed 11:50:33 AM 36.0992 -115.5861 115° Southeast 337 388 13,600 -1,500 Descending Los Angeles Center
Wed 11:51:34 AM 36.0661 -115.4825 112° Southeast 330 380 12,100 -1,381 Descending Los Angeles Center
Wed 11:52:26 AM 36.0364 -115.3897 112° Southeast 321 369 11,000 -1,200 Descending Los Angeles Center
Wed 11:52:29 AM 36.0378 -115.3908 327° Northwest 296 341 11,000 -871 Level Los Angeles Center
Wed 11:53:28 AM 36.0256 -115.2900 98° East 303 349 10,100 -885 Descending Los Angeles Center
Wed 11:53:30 AM 36.0250 -115.2914 244° Southwest 286 329 10,100 -1,161 Level Los Angeles Center
Wed 11:54:30 AM 36.0178 -115.1931 95° East 290 334 8,900 -1,033 Descending Los Angeles Center
Wed 11:55:32 AM 36.0114 -115.1003 95° East 278 320 8,000 -806 Descending Los Angeles Center
Wed 11:55:37 AM 36.0103 -115.0836 95° East 260 299 8,000  Level Los Angeles Center
Wed 11:56:32 AM 36.0275 -115.0247 70° East 207 238 8,000  Level Los Angeles Center
Wed 11:56:34 AM 36.0239 -115.0261 197° South 238 274 8,000 -689 Level Los Angeles Center
Wed 11:57:33 AM 36.0725 -114.9831 36° Northeast 193 222 7,300 -484 Descending Los Angeles Center
Wed 11:57:36 AM 36.0644 -114.9836 183° South 201 231 7,500 -1,377 Climbing Los Angeles Center
Wed 11:58:34 AM 36.1239 -114.9608 17° North 196 226 5,900 -1,355 Descending Los Angeles Center
Wed 11:58:38 AM 36.1144 -114.9572 163° South 196 226 6,100 -1,100 Climbing Los Angeles Center
Wed 11:59:34 AM 36.1383 -115.0172 296° West 183 211 4,800 -1,258 Descending Los Angeles Center
Wed 11:59:40 AM 36.1375 -115.0164 141° Southeast 183 211 4,800 -1,343 Level Los Angeles Center
Wed 12:00:41 PM 36.1408 -115.0883 273° West 186 214 3,300 -1,355 Descending Los Angeles Center
Wed 12:00:42 PM 36.1408 -115.0806 90° East 183 211 3,400 -590 Climbing Los Angeles Center
Wed 12:01:42 PM 36.1297 -115.1372 256° West 150 173 2,700 -581 Descending Los Angeles Center
Wed 12:01:44 PM 36.1328 -115.1322 53° Northeast 173 199 2,800 -469 Climbing Los Angeles Center
Wed 12:02:46 PM 36.0928 -115.1561 206° Southwest 162 186 2,200 -581 Descending Los Angeles Center
Wed 12:04:00 PM 36.0801 -115.1523 95° East  Level Estimated

Login

Don't have an account? Register now (free) for customized features, flight alerts, and more!